Time,TemperatureF,DewpointF,PressureIn,WindDirection,WindDirectionDegrees,WindSpeedMPH,WindSpeedGustMPH,Humidity,HourlyPrecipIn,Conditions,Clouds,dailyrainin,SolarRadiationWatts/m^2,SoftwareType,DateUTC
2013-05-16 00:02:00,60.0,54.0,-100.00,North,3,2.0,4.0,81,0.00,,,0.00,0.000000,,2013-05-16 04:02:00,
2013-05-16 00:33:00,57.0,52.0,-100.00,North,351,2.0,3.0,84,0.00,,,0.00,0.000000,,2013-05-16 04:33:00,
2013-05-16 00:42:00,57.0,52.0,-100.00,North,351,2.0,3.0,84,0.00,,,0.00,0.000000,,2013-05-16 04:42:00,
2013-05-16 00:53:00,57.0,52.0,-100.00,North,351,2.0,3.0,84,0.00,,,0.00,0.000000,,2013-05-16 04:53:00,
2013-05-16 01:03:00,57.0,52.0,-100.00,North,351,2.0,3.0,84,0.00,,,0.00,0.000000,,2013-05-16 05:03:00,
2013-05-16 01:32:00,55.0,52.0,-100.00,North,357,1.0,4.0,89,0.00,,,0.00,0.000000,,2013-05-16 05:32:00,
2013-05-16 01:42:00,55.0,52.0,-100.00,North,357,1.0,4.0,89,0.00,,,0.00,0.000000,,2013-05-16 05:42:00,
2013-05-16 01:52:00,55.0,52.0,-100.00,North,357,1.0,4.0,89,0.00,,,0.00,0.000000,,2013-05-16 05:52:00,
2013-05-16 02:02:00,55.0,52.0,-100.00,North,357,1.0,4.0,89,0.00,,,0.00,0.000000,,2013-05-16 06:02:00,
2013-05-16 02:33:00,54.0,52.0,-100.00,NNE,20,2.0,4.0,94,0.00,,,0.00,0.000000,,2013-05-16 06:33:00,
2013-05-16 02:43:00,54.0,52.0,-100.00,NNE,20,2.0,4.0,94,0.00,,,0.00,0.000000,,2013-05-16 06:43:00,
2013-05-16 02:53:00,54.0,52.0,-100.00,NNE,20,2.0,4.0,94,0.00,,,0.00,0.000000,,2013-05-16 06:53:00,
2013-05-16 03:02:00,54.0,52.0,-100.00,NNE,20,2.0,4.0,94,0.00,,,0.00,0.000000,,2013-05-16 07:02:00,
2013-05-16 03:34:00,53.0,52.0,-100.00,NNE,32,2.0,3.0,96,0.00,,,0.00,0.000000,,2013-05-16 07:34:00,
2013-05-16 03:44:00,53.0,52.0,-100.00,NNE,32,2.0,3.0,96,0.00,,,0.00,0.000000,,2013-05-16 07:44:00,
2013-05-16 03:54:00,53.0,52.0,-100.00,NNE,32,2.0,3.0,96,0.00,,,0.00,0.000000,,2013-05-16 07:54:00,
2013-05-16 04:03:00,53.0,52.0,-100.00,NNE,32,2.0,3.0,96,0.00,,,0.00,0.000000,,2013-05-16 08:03:00,
2013-05-16 04:35:00,53.0,52.0,-100.00,NNE,12,2.0,4.0,96,0.00,,,0.00,0.000000,,2013-05-16 08:35:00,
2013-05-16 04:45:00,53.0,52.0,-100.00,NNE,12,2.0,4.0,96,0.00,,,0.00,0.000000,,2013-05-16 08:45:00,
2013-05-16 04:55:00,53.0,52.0,-100.00,NNE,12,2.0,4.0,96,0.00,,,0.00,0.000000,,2013-05-16 08:55:00,
2013-05-16 05:04:00,53.0,52.0,-100.00,NNE,12,2.0,4.0,96,0.00,,,0.00,0.000000,,2013-05-16 09:04:00,
2013-05-16 05:05:00,53.0,52.0,-100.00,NNE,33,1.0,3.0,96,0.00,,,0.00,0.000000,,2013-05-16 09:05:00,
2013-05-16 05:35:00,53.0,52.0,-100.00,NNE,33,1.0,3.0,96,0.00,,,0.00,0.000000,,2013-05-16 09:35:00,
2013-05-16 05:45:00,53.0,52.0,-100.00,NNE,33,1.0,3.0,96,0.00,,,0.00,0.000000,,2013-05-16 09:45:00,
2013-05-16 05:55:00,53.0,52.0,-100.00,NNE,33,1.0,3.0,96,0.00,,,0.00,0.000000,,2013-05-16 09:55:00,
2013-05-16 06:05:00,53.0,52.0,-100.00,NNE,14,2.0,3.0,96,0.00,,,0.00,0.000000,,2013-05-16 10:05:00,
2013-05-16 06:36:00,53.0,52.0,-100.00,NNE,14,2.0,3.0,96,0.00,,,0.00,0.000000,,2013-05-16 10:36:00,
2013-05-16 06:45:00,53.0,52.0,-100.00,NNE,14,2.0,3.0,96,0.00,,,0.00,0.000000,,2013-05-16 10:45:00,
2013-05-16 06:56:00,53.0,52.0,-100.00,NNE,14,2.0,3.0,96,0.00,,,0.00,0.000000,,2013-05-16 10:56:00,
2013-05-16 07:05:00,52.0,51.0,-100.00,NE,49,2.0,4.0,96,0.00,,,0.00,7.000000,,2013-05-16 11:05:00,
2013-05-16 07:35:00,52.0,51.0,-100.00,NE,49,2.0,4.0,96,0.00,,,0.00,7.000000,,2013-05-16 11:35:00,
2013-05-16 07:46:00,52.0,51.0,-100.00,NE,49,2.0,4.0,96,0.00,,,0.00,7.000000,,2013-05-16 11:46:00,
2013-05-16 07:57:00,52.0,51.0,-100.00,NE,49,2.0,4.0,96,0.00,,,0.00,7.000000,,2013-05-16 11:57:00,
2013-05-16 08:35:00,54.0,53.0,-100.00,North,0,2.0,4.0,95,0.00,,,0.00,46.000000,,2013-05-16 12:35:00,
2013-05-16 08:45:00,54.0,53.0,-100.00,North,0,2.0,4.0,95,0.00,,,0.00,46.000000,,2013-05-16 12:45:00,
2013-05-16 08:53:00,54.0,53.0,-100.00,North,0,2.0,4.0,95,0.00,,,0.00,46.000000,,2013-05-16 12:53:00,
2013-05-16 09:04:00,54.0,53.0,-100.00,North,0,2.0,4.0,95,0.00,,,0.00,46.000000,,2013-05-16 13:04:00,
2013-05-16 09:05:00,60.0,57.0,-100.00,South,178,1.0,3.0,90,0.00,,,-99.99,152.000000,,2013-05-16 13:05:00,
2013-05-16 09:35:00,60.0,57.0,-100.00,South,178,1.0,3.0,90,0.00,,,-99.99,152.000000,,2013-05-16 13:35:00,
2013-05-16 09:44:00,60.0,57.0,-100.00,South,178,1.0,3.0,90,0.00,,,-99.99,152.000000,,2013-05-16 13:44:00,
2013-05-16 09:55:00,60.0,57.0,-100.00,South,178,1.0,3.0,90,0.00,,,-99.99,152.000000,,2013-05-16 13:55:00,
2013-05-16 10:05:00,62.0,57.0,-100.00,SE,139,1.0,2.0,85,0.00,,,0.00,162.000000,,2013-05-16 14:05:00,
2013-05-16 10:37:00,62.0,57.0,-100.00,SE,139,1.0,2.0,85,0.00,,,0.00,162.000000,,2013-05-16 14:37:00,
2013-05-16 10:47:00,62.0,57.0,-100.00,SE,139,1.0,2.0,85,0.00,,,0.00,162.000000,,2013-05-16 14:47:00,
2013-05-16 10:56:00,62.0,57.0,-100.00,SE,139,1.0,2.0,85,0.00,,,0.00,162.000000,,2013-05-16 14:56:00,
2013-05-16 11:05:00,65.0,58.0,-100.00,WSW,252,3.0,4.0,77,0.00,,,0.00,247.000000,,2013-05-16 15:05:00,
2013-05-16 11:40:00,65.0,58.0,-100.00,WSW,252,3.0,4.0,77,0.00,,,0.00,247.000000,,2013-05-16 15:40:00,
2013-05-16 11:50:00,65.0,58.0,-100.00,WSW,252,3.0,4.0,77,0.00,,,0.00,247.000000,,2013-05-16 15:50:00,
2013-05-16 12:01:00,65.0,58.0,-100.00,WSW,252,3.0,4.0,77,0.00,,,0.00,247.000000,,2013-05-16 16:01:00,
2013-05-16 12:05:00,67.0,59.0,-100.00,SSW,201,3.0,6.0,75,0.00,,,0.00,216.000000,,2013-05-16 16:05:00,
2013-05-16 12:40:00,67.0,-99.9,-100.00,SSW,201,3.0,6.0,75,0.00,,,0.00,216.000000,,2013-05-16 16:40:00,
2013-05-16 12:51:00,67.0,59.0,-100.00,SSW,201,3.0,6.0,75,0.00,,,0.00,216.000000,,2013-05-16 16:51:00,
2013-05-16 13:01:00,67.0,59.0,-100.00,SSW,201,3.0,6.0,75,0.00,,,0.00,216.000000,,2013-05-16 17:01:00,
2013-05-16 13:05:00,71.0,55.0,-100.00,SSE,164,4.0,10.0,57,0.00,,,-99.99,519.000000,,2013-05-16 17:05:00,
2013-05-16 13:40:00,71.0,55.0,-100.00,SSE,164,4.0,10.0,57,0.00,,,-99.99,519.000000,,2013-05-16 17:40:00,
2013-05-16 13:50:00,-999.0,-99.9,-100.00,SSE,164,4.0,10.0,57,0.00,,,-99.99,519.000000,,2013-05-16 17:50:00,
2013-05-16 14:00:00,-999.0,-99.9,-100.00,SSE,164,4.0,10.0,57,0.00,,,-99.99,519.000000,,2013-05-16 18:00:00,
2013-05-16 14:05:00,75.0,-99.9,-100.00,SSE,158,4.0,12.0,52,0.00,,,0.00,845.000000,,2013-05-16 18:05:00,
2013-05-16 14:41:00,-999.0,-99.9,-100.00,SSE,158,4.0,12.0,52,0.00,,,0.00,845.000000,,2013-05-16 18:41:00,
2013-05-16 14:50:00,-999.0,-99.9,-100.00,SSE,158,4.0,12.0,52,0.00,,,0.00,845.000000,,2013-05-16 18:50:00,
2013-05-16 15:01:00,-999.0,-99.9,-100.00,SSE,158,4.0,12.0,52,0.00,,,0.00,845.000000,,2013-05-16 19:01:00,
2013-05-16 15:05:00,-999.0,-99.9,-100.00,WSW,239,4.0,11.0,47,0.00,,,0.00,876.000000,,2013-05-16 19:05:00,
2013-05-16 15:40:00,76.0,-99.9,-100.00,WSW,239,4.0,11.0,47,0.00,,,0.00,876.000000,,2013-05-16 19:40:00,
2013-05-16 15:51:00,-999.0,-99.9,-100.00,WSW,239,4.0,11.0,47,0.00,,,0.00,876.000000,,2013-05-16 19:51:00,
2013-05-16 16:01:00,-999.0,-99.9,-100.00,WSW,239,4.0,11.0,47,0.00,,,0.00,876.000000,,2013-05-16 20:01:00,
2013-05-16 16:05:00,-999.0,-99.9,-100.00,WSW,245,5.0,12.0,40,0.00,,,0.00,335.000000,,2013-05-16 20:05:00,
2013-05-16 16:41:00,-999.0,-99.9,-100.00,WSW,245,5.0,12.0,40,0.00,,,0.00,335.000000,,2013-05-16 20:41:00,
2013-05-16 16:51:00,78.0,52.0,-100.00,WSW,245,5.0,12.0,40,0.00,,,0.00,335.000000,,2013-05-16 20:51:00,
2013-05-16 17:00:00,78.0,-99.9,-100.00,WSW,245,5.0,12.0,40,0.00,,,0.00,335.000000,,2013-05-16 21:00:00,
2013-05-16 17:05:00,78.0,52.0,-100.00,SW,232,5.0,11.0,41,0.00,,,0.00,205.000000,,2013-05-16 21:05:00,
2013-05-16 18:01:00,-999.0,-99.9,-100.00,SW,232,5.0,11.0,41,0.00,,,0.00,205.000000,,2013-05-16 22:01:00,
2013-05-16 18:05:00,77.0,53.0,-100.00,SSW,199,4.0,11.0,44,0.00,,,0.00,524.000000,,2013-05-16 22:05:00,
2013-05-16 18:40:00,77.0,53.0,-100.00,SSW,199,4.0,11.0,44,0.00,,,0.00,524.000000,,2013-05-16 22:40:00,
2013-05-16 18:51:00,77.0,53.0,-100.00,SSW,199,4.0,11.0,44,0.00,,,0.00,524.000000,,2013-05-16 22:51:00,
2013-05-16 19:01:00,77.0,53.0,-100.00,SSW,199,4.0,11.0,44,0.00,,,0.00,524.000000,,2013-05-16 23:01:00,
2013-05-16 19:35:00,74.0,54.0,-100.00,SSE,167,3.0,10.0,49,0.00,,,0.00,225.000000,,2013-05-16 23:35:00,
2013-05-16 19:45:00,74.0,54.0,-100.00,SSE,167,3.0,10.0,49,0.00,,,0.00,225.000000,,2013-05-16 23:45:00,
2013-05-16 19:54:00,74.0,54.0,-100.00,SSE,167,3.0,10.0,49,0.00,,,0.00,225.000000,,2013-05-16 23:54:00,
2013-05-16 20:03:00,74.0,54.0,-100.00,SSE,167,3.0,10.0,49,0.00,,,0.00,225.000000,,2013-05-17 00:03:00,
2013-05-16 20:33:00,69.0,55.0,-100.00,NNW,331,1.0,4.0,60,0.00,,,-99.99,76.000000,,2013-05-17 00:33:00,
2013-05-16 20:44:00,69.0,55.0,-100.00,NNW,331,1.0,4.0,60,0.00,,,-99.99,76.000000,,2013-05-17 00:44:00,
2013-05-16 20:53:00,69.0,55.0,-100.00,NNW,331,1.0,4.0,60,0.00,,,-99.99,76.000000,,2013-05-17 00:53:00,
2013-05-16 21:03:00,69.0,55.0,-100.00,NNW,331,1.0,4.0,60,0.00,,,-99.99,76.000000,,2013-05-17 01:03:00,
2013-05-16 21:32:00,64.0,57.0,-100.00,NE,36,2.0,4.0,77,0.00,,,0.00,8.000000,,2013-05-17 01:32:00,
2013-05-16 21:44:00,64.0,57.0,-100.00,NE,36,2.0,4.0,77,0.00,,,0.00,8.000000,,2013-05-17 01:44:00,
2013-05-16 21:53:00,64.0,57.0,-100.00,NE,36,2.0,4.0,77,0.00,,,0.00,8.000000,,2013-05-17 01:53:00,
2013-05-16 22:02:00,64.0,57.0,-100.00,NE,36,2.0,4.0,77,0.00,,,0.00,8.000000,,2013-05-17 02:02:00,
2013-05-16 22:33:00,62.0,56.0,-100.00,NNE,31,2.0,3.0,82,0.00,,,0.00,0.000000,,2013-05-17 02:33:00,
2013-05-16 22:42:00,62.0,56.0,-100.00,NNE,31,2.0,3.0,82,0.00,,,0.00,0.000000,,2013-05-17 02:42:00,
2013-05-16 22:53:00,62.0,56.0,-100.00,NNE,31,2.0,3.0,82,0.00,,,0.00,0.000000,,2013-05-17 02:53:00,
2013-05-16 23:02:00,62.0,56.0,-100.00,NNE,31,2.0,3.0,82,0.00,,,0.00,0.000000,,2013-05-17 03:02:00,
2013-05-16 23:34:00,60.0,56.0,-100.00,NNW,343,2.0,5.0,86,0.00,,,0.00,0.000000,,2013-05-17 03:34:00,
2013-05-16 23:43:00,60.0,56.0,-100.00,NNW,343,2.0,5.0,86,0.00,,,0.00,0.000000,,2013-05-17 03:43:00,
2013-05-16 23:53:00,60.0,56.0,-100.00,NNW,343,2.0,5.0,86,0.00,,,0.00,0.000000,,2013-05-17 03:53:00,